Home   Weather   Perm   Past weeks
Flag for Russia

Past Weather in Perm, Russia — Yesterday and Last 2 Weeks

Now
37 °F

Clear.


Feels Like: 33 °F
Forecast: 52 / 35 °F
Wind: 6 mph from Northwest

Location: Perm'/Bolshoe Savino

Current Time: May 20, 2019 at 1:37:40 am

Latest Report: May 20, 2019 at 12:30 am


Visibility: 10 mi

Pressure: 29.74 "Hg

Humidity: 93%

Dew Point: 36 °F

Location of PermLocation

Past Weather in Perm — Graph

°F

Perm Temperature Yesterday

Maximum temperature yesterday: 48 °F (at 5:00 pm)
Minimum temperature yesterday: 34 °F (at 12:00 am)
Average temperature yesterday: 40 °F

High & Low Weather Summary for the Past Weeks

 TemperatureHumidityPressure
High88 °F (May 13, 1:00 pm)100% (May 9, 12:00 am)30.21 "Hg (May 9, 12:00 am)
Low34 °F (May 18, 11:00 pm)20% (May 7, 4:00 pm)29.59 "Hg (May 19, 5:30 am)
Average60 °F64%30.01 "Hg
* Reported May 5 12:30 am — May 20 12:30 am, Perm. Weather by CustomWeather, © 2019

Note: Actual official high and low records may vary slightly from our data, if they occured in-between our weather recording intervals... More about our weather records

Advertising

Perm Weather History for the Previous 24 Hours

Scroll right to see more
 ConditionsComfort  
Time TempWeatherWind HumidityBarometerVisibility
12:30 am
Mon, May 20
37 °FClear.6 mph93%29.74 "Hg10 mi
12:00 am37 °FClear.6 mph93%29.74 "Hg10 mi
11:30 pm
Sun, May 19
36 °FClear.6 mph93%29.74 "Hg10 mi
11:00 pm39 °FClear.6 mph87%29.74 "Hg10 mi
10:30 pm37 °FPassing clouds.6 mph93%29.74 "HgN/A
10:00 pm37 °FPassing clouds.3 mph93%29.74 "HgN/A
9:30 pm39 °FScattered clouds.6 mph87%29.71 "HgN/A
9:00 pm41 °FScattered clouds.13 mph87%29.71 "HgN/A
8:30 pm43 °FScattered clouds.8 mph76%29.71 "HgN/A
8:00 pm45 °FScattered clouds.8 mph66%29.71 "HgN/A
7:30 pm46 °FScattered clouds.8 mph57%29.68 "HgN/A
7:00 pm45 °FScattered clouds.6 mph61%29.68 "HgN/A
6:30 pm45 °FScattered clouds.6 mph66%29.68 "HgN/A
6:00 pm46 °FScattered clouds.8 mph57%29.68 "HgN/A
5:30 pm46 °FPartly sunny.8 mph57%29.65 "HgN/A
5:00 pm48 °FPartly sunny.1 mph66%29.65 "HgN/A
4:30 pm43 °FPartly sunny.6 mph71%29.65 "HgN/A
4:00 pm45 °FSprinkles. Partly sunny.13 mph66%29.65 "HgN/A
3:30 pm45 °FScattered clouds.8 mph61%29.65 "HgN/A
3:00 pm46 °FScattered clouds.8 mph62%29.65 "HgN/A
2:30 pm45 °FScattered clouds.10 mph61%29.65 "HgN/A
2:00 pm43 °FScattered clouds.10 mph76%29.62 "HgN/A
1:30 pm45 °FPartly sunny.15 mph71%29.62 "HgN/A
1:00 pm43 °FPartly sunny.15 mph76%29.62 "HgN/A
12:30 pm43 °FPartly sunny.15 mph71%29.62 "HgN/A
12:00 pm45 °FPartly sunny.8 mph66%29.59 "HgN/A
11:30 am43 °FPartly sunny.10 mph71%29.59 "HgN/A
11:00 am41 °FSprinkles. Partly sunny.10 mph81%29.59 "HgN/A
10:30 am39 °FScattered clouds.8 mph81%29.59 "HgN/A
10:00 am43 °FPartly sunny.10 mph81%29.59 "HgN/A
9:30 am39 °FSprinkles. Partly sunny.6 mph93%29.62 "HgN/A
9:00 am37 °FSprinkles. Partly sunny.10 mph87%29.62 "Hg6 mi
8:30 am39 °FPartly sunny.10 mph75%29.59 "HgN/A
8:00 am37 °FPartly sunny.10 mph87%29.62 "HgN/A
7:30 am37 °FPartly sunny.10 mph87%29.59 "HgN/A
7:00 am37 °FOvercast.8 mph87%29.59 "HgN/A
6:30 am36 °FSprinkles. Overcast.10 mph93%29.59 "HgN/A
6:00 am36 °FPartly sunny.8 mph93%29.59 "HgN/A
5:30 am36 °FPassing clouds.8 mph93%29.59 "HgN/A
5:00 am36 °FOvercast.8 mph93%29.62 "HgN/A
4:30 am36 °FOvercast.6 mph87%29.62 "HgN/A
4:00 am36 °FOvercast.8 mph93%29.62 "HgN/A
3:30 am36 °FPassing clouds.8 mph93%29.62 "HgN/A
3:00 am36 °FPassing clouds.6 mph93%29.62 "HgN/A
2:30 am36 °FPassing clouds.6 mph93%29.62 "HgN/A
2:00 am36 °FPassing clouds.6 mph93%29.62 "HgN/A
1:30 am34 °FPassing clouds.6 mph93%29.62 "HgN/A
1:00 am36 °FPassing clouds.6 mph93%29.62 "HgN/A
Weather by CustomWeather, © 2019

See weather overview